Weather History for La Junta, CO

Change the Weather History Date:

Saturday, February 9, 2013

  Actual Average Record
Temperature  
Mean Temperature 48 °F 33 °F  
Max Temperature 63 °F 47 °F 78 °F (1976)
Min Temperature 32 °F 19 °F -12 °F (2011)
Degree Days  
Heating Degree Days 17 32  
Month to date heating degree days 214 293  
Since 1 July heating degree days 3159 3550  
Cooling Degree Days 0 0  
Month to date cooling degree days 0 0  
Year to date cooling degree days 0 0  
Moisture  
Dew Point 23 °F    
Average Humidity 45    
Maximum Humidity 82    
Minimum Humidity 8    
Precipitation  
Precipitation 0.08 in 0.01 in 0.23 in (1998)
Month to date precipitation 0.08 0.10  
Year to date precipitation 0.10 0.39  
Sea Level Pressure  
Sea Level Pressure 29.49 in    
Wind  
Wind Speed 13 mph (West)    
Max Wind Speed 39 mph    
Max Gust Speed 53 mph    
Visibility 6 miles    
Events Snow    
T = Trace of Precipitation, MM = Missing Value Source: NWS Daily Summary

Daily Weather History Graph

Daily Weather History Graph

Search for Another Location

Airport:

Trip Planner

Search our weather history database for the weather conditions in past years. The results will help you decide how hot, cold, wet, or windy it might be!

Date:

Astronomy

Feb. 09, 2013 Rise Set
Actual Time 6:50 AM MST 5:26 PM MST
Civil Twilight 6:23 AM MST 5:53 PM MST
Nautical Twilight 5:52 AM MST 6:24 PM MST
Astronomical Twilight 5:21 AM MST 6:55 PM MST
Moon 6:03 AM MST (2/9) 5:11 PM MST (2/9)
Length of Visible Light 11h 30m
Length of Day
10h 35m
Waning Crescent, 0% of the Moon is Illuminated
Feb 9
Waning Crescent
Feb 10
New
Feb 17
First Quarter
Feb 25
Full
Mar 4
Last Quarter

Hourly Weather History & Observations

Time (MST) Temp. Windchill Dew Point Humidity Pressure Visibility Wind Dir Wind Speed Gust Speed Precip Events Conditions
12:53 AM 48.0 °F - 23.0 °F 37% 29.66 in 10.0 mi SSW 15.0 mph 29.9 mph N/A   Clear
1:53 AM 44.1 °F 41.5 °F 21.9 °F 42% 29.67 in 10.0 mi South 4.6 mph - N/A   Clear
2:53 AM 45.0 °F 38.5 °F 24.1 °F 44% 29.64 in 10.0 mi South 13.8 mph 24.2 mph N/A   Clear
3:53 AM 45.0 °F 39.3 °F 24.1 °F 44% 29.61 in 10.0 mi South 11.5 mph - N/A   Clear
4:53 AM 44.1 °F 37.4 °F 24.1 °F 45% 29.60 in 10.0 mi South 13.8 mph - N/A   Clear
5:53 AM 42.1 °F 39.2 °F 24.1 °F 49% 29.60 in 10.0 mi SSE 4.6 mph - N/A   Clear
6:53 AM 37.0 °F 31.6 °F 23.0 °F 57% 29.60 in 10.0 mi East 6.9 mph - N/A   Clear
7:53 AM 34.0 °F - 21.0 °F 59% 29.62 in 10.0 mi Calm Calm - N/A   Clear
8:53 AM 39.9 °F 36.7 °F 21.9 °F 49% 29.58 in 10.0 mi ENE 4.6 mph - N/A   Clear
9:53 AM 46.0 °F 41.9 °F 24.1 °F 42% 29.52 in 10.0 mi ESE 8.1 mph - N/A   Clear
10:53 AM 53.1 °F - 25.0 °F 34% 29.46 in 10.0 mi Calm Calm - N/A   Clear
11:53 AM 57.9 °F - 21.0 °F 24% 29.38 in 10.0 mi SSW 15.0 mph 20.7 mph N/A   Clear
12:13 PM 62.6 °F - 3.2 °F 9% 29.45 in 10.0 mi SSW 28.8 mph 39.1 mph N/A   Clear
12:53 PM 63.0 °F - 1.9 °F 9% 29.29 in 7.0 mi SSW 33.4 mph 49.5 mph N/A   Clear
1:00 PM 62.6 °F - 1.4 °F 9% 29.40 in 9.0 mi SSW 39.1 mph 52.9 mph N/A   Partly Cloudy
1:53 PM 61.0 °F - 6.1 °F 11% 29.29 in 10.0 mi SW 29.9 mph 43.7 mph N/A   Clear
2:53 PM 53.1 °F - 19.0 °F 26% 29.34 in 10.0 mi West 33.4 mph 41.4 mph N/A   Scattered Clouds
3:53 PM 51.1 °F - 18.0 °F 27% 29.33 in 10.0 mi West 29.9 mph 36.8 mph N/A   Mostly Cloudy
4:53 PM 50.0 °F - 17.1 °F 27% 29.36 in 10.0 mi SW 16.1 mph 33.4 mph N/A   Mostly Cloudy
5:53 PM 45.0 °F 37.9 °F 15.1 °F 30% 29.37 in 10.0 mi West 16.1 mph - N/A   Clear
6:53 PM 39.0 °F 36.8 °F 21.0 °F 49% 29.43 in 10.0 mi Variable 3.5 mph - N/A   Scattered Clouds
7:53 PM 37.0 °F 32.4 °F 19.9 °F 50% 29.44 in 10.0 mi NNW 5.8 mph - N/A   Clear
8:53 PM 37.9 °F 29.2 °F 23.0 °F 55% 29.46 in 10.0 mi NNW 15.0 mph - N/A   Overcast
9:22 PM 35.6 °F 27.1 °F 26.6 °F 70% 29.49 in 2.0 mi NW 12.7 mph 21.9 mph 0.00 in Snow Light Snow
9:25 PM 35.6 °F 26.2 °F 28.4 °F 75% 29.50 in 1.0 mi NNW 15.0 mph 21.9 mph 0.00 in Snow Light Snow
9:33 PM 33.8 °F 25.8 °F 30.2 °F 87% 29.50 in 1.0 mi West 10.4 mph - 0.00 in Snow Light Snow
9:53 PM 33.1 °F 28.7 °F 30.9 °F 92% 29.47 in 1.2 mi Variable 4.6 mph - 0.04 in Snow Light Snow
9:58 PM 33.8 °F 28.6 °F 30.2 °F 87% 29.50 in 1.2 mi West 5.8 mph - 0.01 in Snow Light Snow
10:13 PM 33.8 °F 25.8 °F 30.2 °F 87% 29.51 in 1.0 mi West 10.4 mph - 0.02 in Snow Light Snow
10:15 PM 33.8 °F 25.3 °F 30.2 °F 87% 29.51 in 0.8 mi NW 11.5 mph - 0.02 in Snow Light Snow
10:29 PM 33.8 °F 28.6 °F 30.2 °F 87% 29.51 in 1.2 mi ENE 5.8 mph - 0.03 in Snow Light Snow
10:36 PM 33.8 °F 28.6 °F 30.2 °F 87% 29.52 in 3.0 mi NE 5.8 mph - 0.03 in Snow Light Snow
10:45 PM 33.8 °F 23.9 °F 28.4 °F 81% 29.52 in 7.0 mi North 15.0 mph - 0.03 in Snow Light Snow
10:53 PM 34.0 °F 24.6 °F 28.0 °F 79% 29.47 in 2.5 mi NNW 13.8 mph - 0.03 in Snow Light Snow
10:58 PM 33.8 °F 24.8 °F 28.4 °F 81% 29.52 in 3.0 mi NNW 12.7 mph - 0.00 in Snow Light Snow
11:11 PM 33.8 °F 26.4 °F 28.4 °F 81% 29.53 in 1.8 mi NW 9.2 mph - 0.00 in Snow Light Snow
11:21 PM 32.0 °F 24.2 °F 30.2 °F 93% 29.53 in 1.0 mi NW 9.2 mph - 0.01 in Snow Light Snow
11:23 PM 32.0 °F 24.2 °F 30.2 °F 93% 29.53 in 1.2 mi NW 9.2 mph - 0.01 in Snow Light Snow
11:34 PM 32.0 °F 23.6 °F 28.4 °F 87% 29.54 in 1.5 mi NW 10.4 mph - 0.01 in Snow Light Snow
11:43 PM 32.0 °F 24.8 °F 28.4 °F 87% 29.54 in 3.0 mi NW 8.1 mph - 0.01 in Snow Light Snow
11:53 PM 33.1 °F 21.9 °F 27.0 °F 78% 29.49 in 7.0 mi NNW 18.4 mph 23.0 mph 0.01 in Snow Light Snow